Probability
0 0 0 0 0 0 0 0 0 0 6 3 3 16 23 13 13 3 6 10 13 13 6 10 19 16 19 23 26 35 39 39 42 39 32 39 45 39 35 29 26 23 19 13
0 0 0 0 0 0 0 0 0 3 6 0 0 6 19 19 16 19 16 10 3 3 6 6 6 16 19 16 19 29 35 35 29 32 35 39 42 35 39 32 26 19 23 23
0 0 0 0 0 0 3 3 3 6 3 0 3 6 6 16 19 19 10 10 10 10 10 10 10 19 23 23 23 26 35 32 32 32 32 32 35 35 35 32 32 32 29 26
0 0 0 0 0 0 0 0 0 0 0 3 3 3 3 13 10 10 6 13 13 10 10 10 10 16 19 32 32 35 29 29 32 35 32 35 29 32 35 32 32 26 23 29
0 0 0 0 3 3 3 3 0 0 3 3 0 0 3 3 10 10 10 13 16 16 16 19 19 19 26 26 29 35 39 35 32 32 32 26 29 29 26 23 26 23 23 19
0 0 0 0 3 3 3 3 3 3 6 3 3 0 6 10 3 6 10 13 13 19 19 19 19 23 29 29 29 29 35 32 35 35 32 32 29 26 26 19 23 23 19 23
0 0 0 3 3 0 3 3 3 3 3 3 3 0 3 6 6 6 6 13 19 19 23 23 19 23 29 29 29 32 29 29 32 35 35 29 29 19 19 19 23 23 23 19
0 0 0 3 3 3 3 0 3 3 0 3 0 6 3 6 6 6 6 10 16 13 16 19 19 19 26 23 19 26 26 29 29 26 29 26 29 26 23 23 19 23 23 23
0 0 3 3 3 3 0 0 0 0 0 3 3 6 6 6 6 6 6 6 10 10 16 16 19 19 19 19 19 23 26 29 26 26 23 26 26 26 26 26 23 26 23 19
3 3 0 0 0 0 0 0 0 0 3 3 3 3 6 6 6 6 6 10 10 10 13 16 16 16 16 23 19 26 23 26 26 26 23 23 26 26 26 23 23 26 23 19
6 3 0 0 0 0 3 0 3 3 3 3 3 3 3 6 6 3 3 6 10 10 13 13 13 13 13 19 23 26 23 23 23 23 23 19 19 26 23 19 19 23 19 16
6 3 0 0 0 0 3 3 3 6 3 3 3 3 3 3 3 3 3 10 10 10 10 13 13 13 16 16 23 19 13 13 16 16 19 19 19 19 19 16 10 0 0 6
0 0 0 0 0 0 0 0 0 3 3 3 3 3 3 3 3 6 6 10 10 10 10 10 10 13 16 16 16 16 13 10 10 13 13 13 13 13 10 6 0 0 0 0
0 0 3 3 3 3 3 3 3 3 3 3 3 3 3 6 6 6 6 10 10 10 10 10 10 13 10 10 10 10 10 10 10 10 10 13 10 10 10 10 6 6 0 0
0 0 3 3 3 3 3 3 3 3 3 3 3 3 6 6 6 6 6 10 10 10 10 10 10 10 10 10 10 13 10 10 10 6 6 6 10 10 10 10 10 3 3 0
3 3 3 3 6 6 6 3 3 3 3 3 3 3 3 6 6 6 6 10 10 10 10 10 10 10 10 10 10 13 10 10 6 6 3 3 3 6 10 10 6 6 3 3
3 3 3 3 6 6 6 6 6 6 3 3 3 3 3 6 6 6 6 6 6 10 10 10 10 10 10 10 10 13 10 6 3 3 6 3 3 3 3 6 3 3 6 3
3 3 3 3 3 3 6 6 6 6 6 3 3 3 6 6 6 6 6 6 6 6 6 6 10 10 6 6 6 10 10 6 6 6 3 3 3 3 3 3 6 3 3 3
3 3 3 3 3 3 6 6 6 6 6 6 6 6 6 6 6 6 6 6 6 6 6 6 6 6 6 6 6 6 6 3 3 3 3 0 0 0 0 0 0 3 3 3
0 3 3 3 3 3 6 6 6 6 6 6 6 6 6 6 6 6 6 6 6 6 6 6 6 6 3 3 3 6 6 6 3 0 0 0 0 0 0 0 0 0 0 3
3 3 3 3 6 6 6 6 6 6 6 6 6 6 6 6 6 6 6 6 6 6 6 6 3 3 0 0 0 3 3 3 3 0 0 0 0 0 0 0 0 0 0 0
0 0 0 3 3 0 6 6 6 6 6 6 6 6 6 6 6 6 6 6 6 6 6 0 3 0 0 0 3 0 0 0 0 3 0 0 0 0 0 0 0 0 0 0
0 0 0 0 0 0 3 3 3 6 6 6 6 6 6 6 6 6 6 6 3 0 0 0 0 0 0 0 0 0 0 0 0 0 3 0 0 0 0 0 0 0 0 0
0 0 0 0 0 0 0 0 3 3 3 3 3 3 3 6 6 3 3 0 0 0 0 0 0 0 0 0 0 0 0 0 0 0 0 0 0 0 0 0 0 0 0 0
0 0 0 0 0 0 0 0 0 3 3 3 3 3 3 6 3 0 0 0 0 0 0 0 0 0 0 0 0 0 0 0 0 0 0 0 0 0 0 0 0 0 0 0
0 0 0 0 0 0 0 3 3 3 3 3 3 3 3 6 0 0 0 0 0 0 0 0 0 0 0 0 0 0 0 0 0 0 0 0 0 0 0 0 0 0 0 0
0 0 0 0 0 0 0 0 0 0 3 3 3 0 0 0 0 0 0 0 0 0 0 0 0 0 0 0 0 0 0 0 0 0 0 0 0 0 0 0 0 0 0 0
Height
5896 5897 5898 5899 5899 5900 5901 5902 5902 5903 5903 5903 5903 5903 5902 5902 5901 5900 5899 5899 5898 5897 5896 5895 5893 5891 5889 5887 5885 5883 5881 5880 5878 5876 5874 5872 5870 5867 5866 5864 5863 5861 5859 5858
5890 5892 5893 5894 5894 5895 5896 5896 5897 5898 5898 5898 5897 5897 5897 5897 5897 5896 5895 5894 5893 5892 5891 5889 5888 5886 5885 5882 5880 5878 5876 5874 5873 5872 5870 5867 5865 5863 5862 5860 5858 5857 5855 5854
5885 5886 5887 5888 5890 5890 5890 5891 5892 5892 5894 5893 5892 5892 5891 5891 5891 5890 5890 5888 5887 5886 5885 5883 5882 5880 5879 5877 5875 5872 5870 5869 5867 5866 5864 5862 5860 5858 5856 5854 5853 5852 5850 5849
5878 5880 5881 5885 5883 5884 5884 5884 5885 5886 5887 5887 5887 5886 5885 5885 5885 5884 5883 5882 5881 5880 5878 5877 5875 5873 5872 5870 5869 5866 5864 5862 5861 5859 5857 5856 5854 5852 5850 5848 5847 5846 5844 5843
5871 5872 5874 5877 5877 5877 5877 5878 5878 5879 5880 5880 5881 5880 5879 5879 5878 5877 5876 5875 5874 5873 5871 5869 5868 5866 5865 5863 5861 5859 5858 5856 5854 5852 5850 5848 5847 5845 5843 5841 5840 5839 5838 5836
5863 5864 5866 5870 5870 5870 5871 5870 5871 5871 5872 5872 5873 5873 5873 5872 5870 5869 5869 5867 5866 5865 5863 5861 5860 5859 5857 5855 5853 5852 5850 5849 5847 5844 5842 5841 5839 5838 5836 5834 5833 5831 5830 5829
5855 5856 5858 5862 5862 5863 5864 5864 5863 5863 5864 5864 5865 5865 5865 5864 5863 5861 5860 5859 5857 5856 5854 5853 5852 5850 5849 5847 5845 5843 5842 5840 5838 5836 5835 5833 5832 5830 5828 5826 5825 5824 5823 5822
5847 5849 5853 5853 5854 5855 5855 5856 5855 5856 5856 5856 5856 5856 5856 5855 5854 5853 5851 5850 5848 5846 5845 5844 5842 5841 5839 5838 5836 5834 5833 5831 5829 5827 5826 5824 5823 5821 5820 5818 5817 5815 5814 5814
5840 5843 5843 5844 5845 5846 5846 5847 5847 5847 5847 5847 5847 5847 5847 5846 5845 5844 5843 5841 5839 5837 5836 5834 5833 5831 5830 5828 5826 5825 5823 5822 5820 5818 5817 5815 5814 5812 5811 5809 5808 5806 5805 5804
5831 5833 5835 5835 5836 5837 5838 5838 5838 5838 5838 5838 5838 5838 5838 5837 5836 5835 5833 5832 5829 5827 5826 5824 5822 5821 5819 5818 5816 5815 5813 5812 5810 5809 5808 5806 5804 5803 5802 5800 5799 5798 5796 5796
5823 5825 5826 5827 5827 5828 5829 5829 5829 5829 5828 5828 5828 5827 5827 5827 5826 5825 5823 5822 5819 5817 5815 5814 5812 5810 5808 5806 5805 5804 5803 5802 5800 5799 5798 5797 5795 5793 5792 5791 5789 5789 5788 5787
5815 5817 5818 5818 5819 5819 5819 5820 5820 5819 5819 5819 5818 5818 5817 5817 5816 5814 5813 5811 5809 5807 5805 5803 5801 5799 5797 5796 5794 5793 5792 5791 5790 5789 5788 5787 5786 5784 5783 5782 5781 5779 5778 5777
5807 5808 5809 5809 5810 5810 5810 5810 5810 5810 5809 5809 5808 5807 5806 5806 5805 5803 5802 5801 5799 5797 5795 5793 5791 5789 5787 5786 5784 5783 5781 5780 5779 5778 5778 5777 5776 5775 5773 5772 5771 5770 5768 5768
5798 5799 5800 5800 5800 5800 5801 5801 5800 5800 5800 5798 5798 5797 5796 5795 5794 5793 5792 5791 5789 5787 5784 5782 5780 5779 5777 5776 5774 5773 5771 5769 5768 5768 5767 5766 5766 5765 5763 5762 5761 5760 5759 5758
5790 5790 5791 5791 5791 5791 5791 5791 5791 5790 5789 5788 5787 5786 5785 5784 5784 5783 5782 5781 5779 5777 5775 5772 5770 5769 5767 5766 5765 5763 5762 5760 5759 5758 5757 5756 5756 5755 5754 5752 5751 5750 5749 5747
5782 5782 5782 5782 5783 5782 5782 5782 5781 5780 5779 5778 5776 5775 5775 5774 5773 5773 5772 5770 5769 5767 5765 5763 5761 5759 5758 5756 5755 5754 5753 5751 5749 5749 5748 5747 5746 5744 5743 5743 5741 5739 5737 5737
5772 5773 5773 5774 5774 5773 5773 5772 5771 5770 5769 5768 5767 5766 5766 5765 5764 5763 5762 5760 5759 5757 5755 5754 5752 5750 5749 5747 5746 5745 5744 5742 5741 5740 5739 5738 5736 5735 5734 5733 5731 5729 5727 5726
5763 5764 5765 5765 5765 5764 5764 5763 5762 5761 5760 5758 5757 5757 5756 5755 5754 5753 5752 5751 5749 5748 5746 5744 5743 5741 5740 5739 5737 5736 5735 5733 5732 5731 5730 5729 5727 5726 5725 5723 5721 5720 5718 5717
5755 5755 5756 5756 5756 5755 5754 5753 5752 5751 5750 5749 5749 5748 5747 5745 5744 5743 5743 5742 5741 5739 5738 5736 5734 5733 5732 5730 5729 5727 5726 5725 5724 5722 5721 5720 5719 5717 5715 5714 5712 5710 5708 5707
5746 5746 5746 5746 5746 5746 5745 5744 5743 5742 5741 5740 5739 5738 5737 5736 5735 5734 5733 5733 5732 5731 5729 5727 5726 5724 5723 5722 5721 5719 5718 5717 5715 5714 5713 5711 5710 5708 5707 5705 5703 5701 5700 5698
5738 5737 5737 5737 5737 5737 5736 5735 5734 5733 5732 5731 5730 5729 5728 5727 5726 5725 5725 5724 5723 5722 5720 5719 5718 5717 5715 5714 5713 5712 5710 5709 5707 5706 5704 5703 5701 5699 5698 5696 5695 5693 5691 5689
5730 5729 5729 5729 5729 5729 5728 5726 5725 5724 5723 5722 5722 5721 5720 5719 5718 5717 5717 5716 5715 5714 5712 5711 5710 5709 5708 5707 5705 5704 5703 5701 5700 5698 5696 5695 5693 5691 5690 5688 5686 5684 5682 5680
5723 5723 5722 5722 5721 5721 5720 5719 5718 5717 5716 5715 5714 5713 5712 5711 5710 5710 5709 5708 5707 5706 5705 5704 5703 5702 5701 5699 5698 5697 5695 5694 5692 5691 5689 5687 5685 5684 5682 5680 5678 5676 5673 5671
5717 5716 5716 5715 5714 5714 5713 5712 5711 5710 5709 5709 5708 5707 5705 5704 5704 5703 5702 5701 5700 5699 5698 5697 5696 5695 5693 5692 5691 5689 5688 5687 5685 5683 5682 5680 5678 5676 5674 5672 5670 5667 5665 5662
5712 5711 5711 5710 5709 5708 5707 5706 5705 5704 5703 5703 5702 5701 5699 5698 5698 5697 5696 5695 5694 5693 5692 5691 5690 5688 5687 5685 5684 5682 5681 5679 5678 5676 5674 5673 5671 5669 5667 5664 5662 5659 5656 5653
5708 5707 5706 5706 5705 5704 5703 5702 5701 5700 5699 5698 5697 5695 5694 5694 5693 5692 5691 5690 5689 5688 5687 5686 5684 5683 5681 5679 5678 5676 5674 5673 5671 5669 5667 5665 5663 5661 5659 5656 5654 5651 5648 5645
5703 5703 5702 5702 5701 5700 5700 5699 5698 5697 5696 5695 5694 5692 5692 5691 5690 5689 5688 5686 5685 5684 5682 5681 5679 5678 5676 5674 5672 5671 5669 5667 5665 5663 5660 5658 5656 5653 5651 5649 5646 5643 5640 5637
Wind_Speed
20 20 20 20 21 21 21 20 20 19 20 21 21 20 20 20 20 20 17 17 18 18 18 18 19 18 19 20 20 20 19 18 18 18 17 17 16 15 15 14 14 14 14 14
22 22 22 22 22 23 23 22 22 21 22 22 23 22 22 22 22 21 20 20 21 20 20 21 21 21 21 22 21 22 21 20 19 20 19 19 18 18 17 17 16 16 16 15
25 24 25 24 22 22 22 23 24 23 23 23 23 23 24 24 24 25 23 23 23 23 22 23 23 23 23 23 23 23 23 22 22 22 21 21 21 21 20 19 18 18 17 18
26 26 27 24 24 24 25 25 25 25 24 24 24 25 25 25 25 24 24 24 25 25 25 25 25 25 24 24 25 25 24 24 24 24 23 23 23 22 22 21 21 20 20 20
28 28 27 26 26 26 27 28 28 27 26 25 25 26 27 27 26 26 27 27 27 27 27 27 27 26 26 26 26 26 26 26 26 26 25 24 25 24 23 23 22 22 22 22
29 29 29 27 27 27 28 29 29 29 29 28 27 28 28 28 28 28 29 29 28 27 28 29 29 28 27 27 28 27 27 27 27 27 26 26 26 26 25 25 24 24 24 23
29 29 29 27 27 28 30 30 29 29 30 30 29 30 29 30 30 31 31 31 30 29 29 29 29 29 29 28 28 29 28 29 29 28 28 27 27 26 25 25 26 25 25 25
30 30 30 27 27 28 30 30 30 31 31 31 30 30 31 31 32 32 32 32 31 30 30 30 30 30 31 30 30 31 31 30 30 30 29 28 28 27 27 27 27 26 26 26
31 31 30 29 29 30 30 30 31 31 31 31 31 32 32 32 32 32 32 32 31 31 31 32 32 32 32 32 31 32 31 30 30 30 30 29 28 28 28 28 28 27 27 27
31 31 30 31 30 30 30 31 32 32 33 32 32 33 33 33 32 32 32 32 32 31 32 33 34 34 34 33 33 32 31 30 30 30 30 30 29 29 28 28 28 29 27 27
31 31 31 31 31 31 31 31 32 33 33 34 33 32 32 32 33 33 32 33 33 32 32 33 33 34 34 34 34 33 32 32 32 31 31 31 30 30 29 28 28 29 29 29
32 32 32 32 32 32 33 33 33 33 34 34 33 32 33 34 34 34 34 34 34 33 33 34 34 34 34 34 34 34 34 34 33 32 31 31 30 29 30 30 29 30 30 29
32 31 31 32 32 33 33 33 34 34 33 33 34 33 33 34 35 36 35 35 34 34 34 34 34 34 33 34 34 34 33 34 33 32 31 31 30 30 30 30 30 30 29 29
31 31 31 32 32 33 34 33 33 34 34 33 33 33 34 35 35 34 34 35 35 35 35 35 34 34 33 33 33 33 32 32 31 31 32 31 31 31 31 31 31 31 31 31
31 31 31 32 32 33 33 33 32 33 33 32 32 33 33 33 34 34 34 35 35 34 34 33 33 32 32 32 31 31 30 31 31 31 31 31 31 31 31 32 32 32 33 33
30 31 33 33 32 32 32 33 33 33 33 32 32 32 32 32 33 33 33 33 33 33 32 33 32 32 32 32 31 30 31 31 31 30 31 31 31 31 31 32 32 32 32 33
30 30 30 30 30 31 32 33 34 33 32 30 31 31 32 32 32 33 32 31 31 31 32 32 32 31 30 31 31 31 31 31 30 30 30 31 31 31 31 32 32 32 31 32
29 29 29 30 30 31 31 32 32 32 31 30 30 31 31 31 31 32 32 31 30 30 30 31 31 30 30 29 29 29 30 30 29 29 30 30 31 31 31 31 30 30 30 30
29 30 30 29 29 30 30 31 30 30 30 30 30 30 31 31 30 30 30 30 29 30 30 29 30 29 29 29 29 29 29 29 29 29 29 30 31 31 31 31 30 30 29 30
28 29 29 29 28 28 28 29 29 30 31 31 31 29 29 29 29 29 29 29 28 28 29 29 29 29 28 27 27 28 28 28 28 28 29 29 30 30 30 29 28 28 28 29
26 27 27 27 27 27 27 28 28 28 29 29 29 28 28 28 28 28 28 27 27 27 27 27 28 27 26 26 26 26 27 27 27 27 27 28 28 28 28 27 27 27 27 28
24 25 26 26 26 26 26 27 26 26 26 26 27 27 27 26 26 26 26 26 25 26 26 26 26 25 24 24 25 25 25 25 25 25 25 25 26 27 26 26 26 27 27 28
22 23 23 23 23 23 23 23 23 23 23 24 24 24 24 24 23 24 24 24 24 25 24 24 24 24 23 23 23 24 24 24 24 24 25 25 25 25 25 26 26 27 28 29
19 20 20 20 20 20 20 21 21 21 21 21 21 22 22 22 21 21 21 22 22 21 21 22 23 22 22 22 23 23 23 23 23 24 25 25 24 25 25 26 27 27 28 29
17 16 17 18 18 18 18 18 19 19 19 19 19 20 19 18 18 18 18 19 19 19 19 19 19 19 20 21 22 22 22 22 23 23 24 24 25 25 25 26 27 28 29 29
16 16 15 15 15 14 14 14 15 15 16 16 17 17 15 15 15 15 16 16 16 17 18 18 19 19 20 21 21 20 21 22 23 23 24 24 25 25 25 25 26 27 27 27
15 15 14 14 14 14 14 14 14 14 15 14 14 13 13 13 14 14 14 15 15 16 16 17 17 18 20 19 19 19 20 21 22 23 23 23 24 23 24 25 26 26 26 27
Wind_Direction
243 244 244 245 248 250 252 257 261 264 268 274 275 277 282 289 292 293 291 294 295 298 302 303 304 304 305 305 304 304 303 302 301 302 301 301 299 298 296 292 291 291 291 294
246 248 246 247 248 251 254 257 262 265 268 272 274 276 281 285 288 290 295 295 292 292 295 296 297 298 299 299 299 298 297 297 296 296 296 296 295 294 292 290 288 287 286 285
247 248 248 247 249 252 256 258 262 266 270 271 272 277 280 283 286 287 291 292 292 292 292 291 292 294 295 295 295 294 294 293 292 291 291 291 292 290 288 287 285 284 284 282
249 250 250 251 251 252 254 257 261 264 267 270 272 276 278 282 285 287 289 290 290 290 289 288 289 290 291 291 292 291 290 289 290 289 288 288 289 290 288 285 282 280 280 280
247 250 253 252 253 254 256 258 263 266 267 269 272 275 275 279 282 284 286 286 286 285 286 286 286 287 289 290 290 291 290 290 289 289 285 286 285 285 286 285 283 279 277 277
248 251 253 254 254 256 259 261 264 268 268 270 273 275 276 278 280 281 283 286 285 284 284 285 285 286 287 287 288 289 288 288 289 290 288 288 286 284 285 283 284 282 276 276
251 254 256 256 255 256 258 262 264 266 269 271 274 276 278 279 279 280 282 284 283 283 284 284 285 285 286 287 287 287 288 288 288 289 288 286 285 284 284 283 281 280 276 275
254 256 258 258 257 257 259 261 264 267 270 273 274 276 278 279 279 280 283 284 282 283 283 284 284 285 286 286 286 286 286 286 287 287 287 286 283 281 281 281 281 277 275 274
256 258 259 259 258 259 262 264 265 267 267 269 271 274 276 277 279 281 282 283 283 283 284 284 284 284 285 286 286 286 285 284 284 284 285 284 284 281 280 280 280 278 275 274
256 258 260 261 261 263 264 266 267 267 267 268 270 272 275 276 278 280 281 282 283 284 285 284 284 284 285 285 285 286 285 284 283 282 283 283 283 282 280 279 278 276 276 276
255 258 260 261 263 265 265 267 269 270 269 269 269 271 273 276 278 280 282 283 283 285 285 285 284 285 286 286 285 285 285 283 282 282 282 283 282 281 279 278 278 277 277 277
256 259 260 261 264 266 266 266 269 270 270 271 271 272 274 276 278 279 281 281 282 283 285 286 286 286 285 285 285 284 284 282 281 282 281 281 280 280 279 278 279 278 278 278
257 258 260 261 262 263 265 266 267 269 271 272 272 273 275 276 277 279 281 283 283 283 283 285 287 287 285 284 284 284 285 284 280 280 280 280 281 280 280 279 279 279 278 279
257 260 260 262 264 266 268 269 268 268 270 272 271 273 275 276 277 279 280 282 284 283 283 284 286 286 285 284 284 285 286 284 281 279 278 278 280 281 280 280 281 280 280 281
258 260 262 265 266 268 270 271 271 271 273 273 271 273 275 276 277 277 278 281 283 284 284 285 285 285 284 283 284 284 285 284 281 279 279 280 282 282 282 282 282 280 279 279
258 260 263 264 267 270 271 272 274 275 276 275 273 273 274 275 276 277 278 280 282 284 285 285 284 284 282 282 283 284 285 284 282 279 280 281 282 280 281 283 283 283 281 277
261 262 264 268 270 272 274 275 276 277 277 276 274 274 275 277 277 278 279 280 282 284 284 283 283 282 283 282 283 283 284 284 281 279 280 281 281 282 282 283 283 283 283 281
264 266 267 268 270 273 276 277 277 278 278 277 276 276 276 277 278 277 277 280 281 282 284 283 283 283 282 283 283 284 284 284 281 280 281 282 282 283 284 285 284 283 282 282
265 267 268 270 271 274 276 278 279 280 281 281 279 278 277 277 278 277 278 279 279 281 282 283 283 282 283 283 284 284 284 284 284 283 282 282 283 282 283 283 283 283 282 283
265 265 267 270 272 274 276 278 279 280 280 279 279 279 278 279 279 279 279 280 280 281 281 282 283 283 283 284 284 283 283 283 284 284 283 282 282 282 283 283 284 286 285 285
265 265 266 269 271 274 277 279 279 279 279 279 279 279 280 280 280 280 279 280 280 281 282 282 284 285 285 285 286 286 284 283 283 284 284 283 283 283 284 284 285 287 287 287
269 268 268 270 271 273 276 277 278 279 279 278 278 279 281 282 282 281 280 280 281 282 282 281 283 284 285 286 287 287 286 286 286 288 288 287 286 286 287 287 287 288 289 290
268 269 270 272 273 274 276 277 278 279 279 279 279 280 281 283 281 281 281 280 281 282 281 281 283 284 285 286 287 287 287 287 288 289 290 290 289 288 289 289 290 291 293 293
270 271 273 273 274 274 276 277 279 280 279 281 282 283 283 283 283 282 282 282 282 282 282 283 285 285 286 288 288 288 287 287 288 290 290 291 291 290 291 292 292 293 295 296
271 272 274 277 278 277 276 278 281 283 283 283 283 283 283 283 284 285 284 285 284 284 286 287 287 289 290 289 290 290 290 290 292 293 292 292 292 292 293 293 293 295 296 298
273 272 273 275 279 282 282 283 286 288 290 289 288 287 285 285 287 289 289 289 287 287 287 289 290 292 294 295 295 295 295 295 295 295 294 294 294 294 294 294 295 297 299 300
272 269 269 275 280 283 285 287 290 292 294 297 298 295 293 293 292 293 294 293 292 292 292 294 295 296 297 299 302 301 300 299 298 298 298 298 298 298 299 298 299 300 301 302